Location: Newark
(28.9833°N, 10.0667°W)
Time: 03:03:34
(UTC+00:00)

Envisat - Visible Passes

Search period start: 14 December 2019 00:00
Search period end: 24 December 2019 00:00
Orbit: 764 x 766 km, 98.1° (Epoch: 13 December)

Date Brightness Start Highest point End Pass type
(mag) Time Alt. Az. Time Alt. Az. Time Alt. Az.
14 Dec 3.1 18:25:16 10° SSE 18:30:11 52° ENE 18:35:06 10° N visible
14 Dec 6.1 20:07:18 10° WSW 20:09:23 12° W 20:11:28 10° WNW visible
15 Dec 5.2 06:41:03 10° NE 06:45:31 31° E 06:49:57 10° SSE visible
15 Dec 4.8 19:27:55 10° SSW 19:32:24 32° W 19:36:55 10° NW visible
16 Dec 6.3 06:06:42 10° ENE 06:08:32 12° E 06:10:22 10° ESE visible
16 Dec 3.1 18:50:32 10° S 18:55:35 82° WSW 19:00:41 10° NNW visible
17 Dec 3.4 18:14:16 10° SE 18:18:57 40° ENE 18:23:39 10° N visible
17 Dec 5.8 19:54:50 10° SW 19:58:01 17° W 20:01:14 10° NW visible
18 Dec 5.6 06:30:10 10° NE 06:34:12 23° E 06:38:11 10° SSE visible
18 Dec 4.3 19:16:20 10° S 19:21:05 42° W 19:25:54 10° NNW visible
19 Dec 2.9 18:39:17 10° SSE 18:44:20 77° ENE 18:49:24 10° N visible
20 Dec 4.4 06:54:55 10° NNE 06:59:46 45° E 07:04:35 10° S visible
20 Dec 5.4 19:42:48 10° SSW 19:46:40 22° W 19:50:34 10° NW visible
21 Dec 5.9 06:19:28 10° NE 06:22:51 18° E 06:26:13 10° SE visible
21 Dec 3.7 19:04:50 10° S 19:09:48 56° W 19:14:47 10° NNW visible
22 Dec 3.0 18:28:07 10° SSE 18:33:05 58° ENE 18:38:04 10° N visible
22 Dec 6.2 20:10:59 10° WSW 20:12:20 11° W 20:13:42 10° WNW visible
23 Dec 4.9 06:43:52 10° NNE 06:48:27 34° E 06:53:01 10° SSE visible
23 Dec 5.0 19:31:00 10° SSW 19:35:21 29° W 19:39:43 10° NW visible
